GW3611 Weather Reports


time (UTC)temp
F
wind
direction
speed
knots
gust
knots
rain 1hr
in
rain 24hr
in
rain mn
in
humidity
%
barometer
mb
20260503220036 61 60 0.0 1.7 0.00 0.00 0.00 42 1014.9
20260503214550 62 60 0.0 1.7 0.00 0.00 0.00 39 1015.0
20260503213053 63 60 0.0 2.6 0.00 0.00 0.00 40 1015.0
20260503211554 63 59 0.0 1.7 0.00 0.00 0.00 43 1015.0
20260503210058 64 46 0.0 2.6 0.00 0.00 0.00 39 1015.1
20260503204506 64 74 1.7 6.1 0.00 0.00 0.00 38 1015.4
20260503203044 64 159 0.0 5.2 0.00 0.00 0.00 40 1015.3
20260503201551 63 137 0.0 3.5 0.00 0.00 0.00 42 1015.6
20260503200009 62 49 0.0 3.5 0.00 0.00 0.00 38 1015.8
20260503194538 63 9 0.0 4.3 0.00 0.00 0.00 39 1016.1
20260503193050 63 185 0.9 5.2 0.00 0.00 0.00 38 1016.3
20260503191559 64 348 0.9 4.3 0.00 0.00 0.00 35 1016.4
20260503190027 64 351 0.0 4.3 0.00 0.00 0.00 37 1016.6
20260503184604 65 335 0.0 4.3 0.00 0.00 0.00 36 1016.9
20260503183100 63 287 0.0 4.3 0.00 0.00 0.00 39 1017.0
20260503181555 63 261 0.0 2.6 0.00 0.00 0.00 38 1017.0
20260503180056 62 256 0.9 3.5 0.00 0.00 0.00 39 1017.2
20260503174547 61 253 0.0 4.3 0.00 0.00 0.00 38 1017.5
20260503173059 61 299 0.0 2.6 0.00 0.00 0.00 36 1017.6
20260503171612 59 304 0.0 0.9 0.00 0.00 0.00 42 1018.1
20260503110104 35 5 0.0 0.0 0.00 0.00 0.00 89 1018.0
20260503100107 35 5 0.0 0.0 0.00 0.00 0.00 90 1017.2
20260503081540 34 5 0.0 0.0 0.00 0.00 0.00 89 1016.0
20260503080107 34 5 0.0 0.0 0.00 0.00 0.00 89 1016.0
20260503071604 35 5 0.0 0.0 0.00 0.00 0.00 85 1015.3
20260503054541 39 5 0.0 0.0 0.00 0.00 0.00 82 1015.3
20260503053053 38 5 0.0 0.0 0.00 0.00 0.00 83 1015.2
20260503051558 38 5 0.0 0.0 0.00 0.00 0.00 83 1015.3
20260503050045 38 5 0.0 0.0 0.00 0.00 0.00 83 1015.0
20260503044555 38 5 0.0 0.0 0.00 0.00 0.00 82 1015.0
20260503043037 38 5 0.0 0.0 0.00 0.00 0.00 80 1015.0
20260503041545 39 5 0.0 0.0 0.00 0.00 0.00 79 1014.9
20260503034504 40 5 0.0 0.0 0.00 0.00 0.00 77 1014.5
20260503033023 41 5 0.0 0.0 0.00 0.00 0.00 76 1014.4
20260503031544 41 5 0.0 0.0 0.00 0.00 0.00 74 1014.3
20260503030054 42 5 0.0 0.0 0.00 0.00 0.00 73 1014.3
20260503024559 43 5 0.0 0.0 0.00 0.00 0.00 70 1014.2
20260503023004 44 5 0.0 0.0 0.00 0.00 0.00 67 1014.2
20260503021544 45 5 0.0 0.0 0.00 0.00 0.00 66 1013.7
20260503020056 46 5 0.0 0.0 0.00 0.00 0.00 62 1013.6
20260503014556 46 5 0.0 0.0 0.00 0.00 0.00 63 1013.5
20260503013006 47 5 0.0 0.0 0.00 0.00 0.00 63 1013.1
20260503011551 48 5 0.0 0.0 0.00 0.00 0.00 60 1013.0
20260503010058 48 5 0.0 0.0 0.00 0.00 0.00 57 1012.9
20260503004553 49 5 0.0 0.0 0.00 0.00 0.00 56 1012.7
20260503003105 49 5 0.0 0.0 0.00 0.00 0.00 55 1012.4
20260503001604 50 5 0.0 0.0 0.00 0.00 0.00 51 1012.3
20260503000119 51 5 0.0 0.0 0.00 0.00 0.00 48 1012.0
20260502234517 52 5 0.0 0.9 0.00 0.00 0.00 49 1011.7
20260502233044 53 5 0.0 0.9 0.00 0.00 0.00 47 1011.4
20260502231555 54 5 0.0 2.6 0.00 0.00 0.00 44 1011.2
20260502230007 55 5 0.0 2.6 0.00 0.00 0.00 44 1011.1
20260502224532 56 5 0.0 4.3 0.00 0.00 0.00 42 1011.0
20260502223053 57 5 0.0 4.3 0.00 0.00 0.00 41 1010.9
20260502221534 56 12 0.0 2.6 0.00 0.00 0.00 42 1010.8